Flag for Philippines Weather past 2 weeks in Tarlac City, Philippines

Now
81 °F

Passing clouds.


Feels Like: 87 °F
Forecast: 78 / 89 °F
Wind: 2 mph from West

Location: Clarkfield Pampanga International Airport

Current Time: Aug 5, 2015 at 8:44:27 PM

Latest Report: Aug 5, 2015 at 8:00 PM


Visibility: N/A

Pressure: 29.71 "Hg

Humidity: 89%

Dew point: 77 °F

Location of Tarlac CityLocation

Historic Weather in Tarlac City — Graph

°F

Tarlac City temperature yesterday

Maximum temperature yesterday: 91 °F (at 2:00 PM)
Minimum temperature yesterday: 75 °F (at 8:00 PM)
Average temperature yesterday: 83 °F

Past Weeks' High & Low Weather Summary

 TemperatureHumidityPressure
High93 °F (Aug 3, 3:00 PM)100% (Jul 22, 6:00 AM)30.01 "Hg (Jul 22, 6:00 AM)
Low72 °F (Jul 27, 5:00 AM)44% (Aug 1, 3:00 PM)29.65 "Hg (Aug 5, 2:00 PM)
Average81 °F82%29.87 "Hg
* Reported Jul 21 8:00 PM — Aug 5 8:00 PM, Tarlac City, Weather by CustomWeather, © 2015

Note: Actual official high and low records may vary slightly from our data, if they occured in-between our weather recording intervals... More about our weather records

Advertising

Tarlac City weather history for previous 24 hours

 ConditionsComfort  
Time TempWeatherWind HumidityBarometerVisibility
8:00 PM
Wed, Aug 5
81 °FPassing clouds.2 mph89%29.71 "HgN/A
7:00 PM81 °FPartly cloudy.3 mph100%29.68 "HgN/A
6:00 PM79 °FBroken clouds.1 mph100%29.68 "Hg6 mi
5:00 PM79 °FRain showers. Broken clouds.5 mph100%29.65 "Hg5 mi
4:00 PM75 °FThunderstorms. More clouds than sun.8 mph100%29.65 "Hg4 mi
3:00 PM86 °FRain showers. More clouds than sun.18 mph75%29.65 "Hg4 mi
2:00 PM88 °FThundershowers. Broken clouds.2 mph66%29.65 "Hg6 mi
1:00 PM88 °FBroken clouds.5 mph66%29.68 "Hg6 mi
12:00 PM88 °FBroken clouds.5 mph66%29.71 "Hg6 mi
11:00 AM86 °FBroken clouds.2 mph70%29.74 "Hg6 mi
10:00 AM82 °FPartly sunny.3 mph84%29.74 "Hg6 mi
9:00 AM81 °FPartly sunny.1 mph89%29.77 "Hg6 mi
8:00 AM79 °FPartly sunny.2 mph100%29.77 "Hg6 mi
7:00 AM75 °FPartly sunny.2 mph100%29.74 "HgN/A
6:00 AM75 °FBroken clouds.2 mph100%29.74 "HgN/A
5:00 AM75 °FPartly cloudy.5 mph100%29.74 "HgN/A
4:00 AM75 °FMostly cloudy.7 mph100%29.74 "HgN/A
3:00 AM77 °FMostly cloudy.3 mph100%29.74 "HgN/A
2:00 AM77 °FMostly cloudy.6 mph100%29.74 "Hg6 mi
1:00 AM75 °FMostly cloudy.7 mph100%29.77 "Hg6 mi
12:00 AM75 °FMostly cloudy.2 mph100%29.80 "Hg6 mi
11:00 PM
Tue, Aug 4
75 °FPartly cloudy.2 mph100%29.80 "Hg6 mi
10:00 PM75 °FLight rain. Passing clouds.2 mph100%29.80 "Hg5 mi
9:00 PM77 °FLight rain. Partly cloudy.5 mph100%29.77 "Hg5 mi
8:00 PM75 °FThunderstorms. Partly cloudy.6 mph100%29.77 "Hg5 mi
Weather by CustomWeather, © 2015

See weather overviewHow to use our weather pages